Regional Weather Roundup
Issued by NWS Kansas City/Pleasant Hill, MO

Home | Current Version | Previous Version | Graphics & Text | Print | Product List | Glossary Off
Versions: 1 2 3 4 5 6 7 8 9 10 11 12 13 14 15 16 17 18 19 20 21 22 23 24 25 26 27 28 29 30 31 32 33 34 35 36 37 38 39 40 41 42 43 44 45 46 47 48 49 50

000
ASUS43 KEAX 271810
RWREAX

WEATHER ROUNDUP FOR EASTERN KANSAS AND NORTHWEST MISSOURI
NATIONAL WEATHER SERVICE KANSAS CITY/PLEASANT HILL MO
100 PM CDT THU AUG 27 2015

KSZ040-057-103>105-MOZ028-029-037-043-271900-
...KANSAS CITY METROPOLITAN AREA...

CITY           SKY/WX    TMP DP  RH WIND       PRES   REMARKS
K.C. INTL      TSTM      70  66  87 NE13      30.12R
6HR MIN TEMP:  64; 6HR MAX TEMP:  74; 6HR PCP: TRACE;

K.C. DOWNTOWN  CLOUDY    69  64  84 E7        30.10R THUNDER
6HR MIN TEMP:  66; 6HR MAX TEMP:  73; 6HR PCP:  0.01;

LEES SUMMIT    CLOUDY    67  63  87 S5        30.09S
6HR MIN TEMP:  63; 6HR MAX TEMP:  68; 6HR PCP:  1.26;

OLATHE - IXD   TSTM      74  68  81 SW10      30.11R
6HR MIN TEMP:  64; 6HR MAX TEMP:  77; 6HR PCP: TRACE;

OLATHE - OJC   CLOUDY    72  67  84 N5        30.11R THUNDER
6HR MIN TEMP:  62; 6HR MAX TEMP:  73; 6HR PCP:  1.64;

LAWRENCE       PTSUNNY   79  67  66 SE10      30.06S

$$

MOZ001>008-011>017-020>025-030>033-038>040-044>046-053-054-271900-
...NORTHERN AND CENTRAL MISSOURI...

CITY           SKY/WX    TMP DP  RH WIND       PRES   REMARKS
ST. JOSEPH     CLOUDY    67  64  90 E20G29    30.10F
6HR MIN TEMP:  65; 6HR MAX TEMP:  72; 6HR PCP:  0.02;

MOSBY            N/A     66  63  88 N6        30.13R THUNDER
WARRENSBURG    CLOUDY    70  59  68 E10       30.09F
WHITEMAN AFB   CLOUDY    71  59  64 SE10      30.10F
6HR MIN TEMP:  58; 6HR MAX TEMP:  72;

CLINTON          N/A     72  63  73 SE10      30.11F
SEDALIA        CLOUDY    76  61  59 SE9       30.13F
6HR MIN TEMP:  57; 6HR MAX TEMP:  77;

WARSAW         NOT AVBL
CHILLICOTHE      N/A     72  62  71 CALM      30.20R
6HR MIN TEMP:  58; 6HR MAX TEMP:  76;

KIRKSVILLE     CLOUDY    74  58  57 SW7       30.19F
6HR MIN TEMP:  55; 6HR MAX TEMP:  74;


$$

MOZ041-047>049-056>058-063>065-088>090-097-271900-
...EASTERN AND SOUTHERN MISSOURI...

CITY           SKY/WX    TMP DP  RH WIND       PRES   REMARKS
ST. LOUIS INTL PTSUNNY   78  55  44 VRB3      30.19S
6HR MIN TEMP:  61; 6HR MAX TEMP:  78;

SPIRIT OF STL  MOSUNNY   75  59  57 CALM      30.17F
COLUMBIA       PTSUNNY   76  59  55 VRB3      30.16F
JEFFERSON CITY PTSUNNY   77  56  48 S6        30.15F
ROLLA          MOSUNNY   77  57  50 VRB5      30.16F
OSAGE BEACH    PTSUNNY   77  57  50 SE7       30.15F
SPRINGFIELD    CLOUDY    73  59  61 SE12      30.15S
BRANSON        CLOUDY    73  61  64 S5        30.18S
JOPLIN         CLOUDY    72  64  76 S9        30.13F
WEST PLAINS    PTSUNNY   75  56  51 CALM      30.18F

$$

IAZ060-094-KSZ022-034>040-054-083-096-NEZ052-066-093-271900-
...KANSAS...SOUTHEAST NEBRASKA AND IOWA...

CITY           SKY/WX    TMP DP  RH WIND       PRES   REMARKS
TOPEKA         CLOUDY    78  68  71 SE10      30.05F
6HR MIN TEMP:  67; 6HR MAX TEMP:  78; 6HR PCP:  0.02;

MANHATTAN      PTSUNNY   87  66  49 S20G28    30.00F
EMPORIA        SUNNY     83  64  52 S17G29    30.05F
CHANUTE        RAIN      70  65  84 S13G24    30.08F
WICHITA        PTSUNNY   82  65  56 SE28G35   30.05F
OMAHA          CLOUDY    77  63  61 S22G31    30.01F
LINCOLN        PTSUNNY   79  65  62 SE20G26   30.00F
FALLS CITY     CLOUDY    77  66  68 SE21G26   30.06R
LAMONI         LGT RAIN  65  60  84 E12G24    30.08F
DES MOINES     LGT RAIN  66  59  78 E14       30.08F

$$



USA.gov is the U.S. government's official web portal to all federal, state and local government web resources and services.